San Juan, PR

6:49 PM AST on September 21, 2017 (GMT -0400)
Luis Munoz Marin International

Weather History for TJSJ - November, 2012

Change the Weather History Date:

Sunday, November 25, 2012

  Actual Average Record
Temperature  
Mean Temperature 82 °F 80 °F  
Max Temperature 87 °F 85 °F 90 °F (1981)
Min Temperature 76 °F 75 °F 67 °F (1962)
Degree Days  
Heating Degree Days 0 0  
Month to date heating degree days 0 0  
Since 1 July heating degree days 0 0  
Cooling Degree Days 17 15  
Month to date cooling degree days 446 393  
Year to date cooling degree days 5619 5352  
Growing Degree Days 31 (Base 50)    
Moisture  
Dew Point 72 °F    
Average Humidity 73    
Maximum Humidity 87    
Minimum Humidity 59    
Precipitation  
Precipitation T in 0.18 in 7.07 in (1979)
Month to date precipitation 2.57 5.41  
Year to date precipitation 49.38 50.39  
Sea Level Pressure  
Sea Level Pressure 30.00 in    
Wind  
Wind Speed 8 mph (ENE)    
Max Wind Speed 16 mph    
Max Gust Speed 22 mph    
Visibility 10 miles    
Events      
T = Trace of Precipitation, MM = Missing Value Source: NWS Daily Summary

Daily Weather History Graph

Daily Weather History Graph

Search for Another Location

Airport or City:

Trip Planner

Search our weather history database for the weather conditions in past years. The results will help you decide how hot, cold, wet, or windy it might be!

Date:

Astronomy

Nov. 25, 2012 Rise Set
Actual Time 6:36 AM AST 5:45 PM AST
Civil Twilight 6:13 AM AST 6:09 PM AST
Nautical Twilight 5:46 AM AST 6:35 PM AST
Astronomical Twilight 5:19 AM AST 7:02 PM AST
Moon 3:47 PM AST (11/25) 4:02 AM AST (11/25)
Length of Visible Light 11h 55m
Length of Day
11h 09m
Waxing Gibbous, 92% of the Moon is Illuminated
Nov 25
Waxing Gibbous
Nov 28
Full
Dec 6
Last Quarter
Dec 13
New
Dec 20
First Quarter

Hourly Weather History & Observations

Time (AST) Temp. Heat Index Dew Point Humidity Pressure Visibility Wind Dir Wind Speed Gust Speed Precip Events Conditions
12:56 AM 79.0 °F - 71.1 °F 77% 29.97 in 10.0 mi Calm Calm - N/A   Mostly Cloudy
1:56 AM 79.0 °F - 71.1 °F 77% 29.96 in 10.0 mi Calm Calm - N/A   Overcast
2:56 AM 78.1 °F - 71.1 °F 79% 29.95 in 10.0 mi Calm Calm - N/A   Scattered Clouds
3:56 AM 78.1 °F - 71.1 °F 79% 29.95 in 10.0 mi Calm Calm - N/A   Scattered Clouds
4:56 AM 79.0 °F - 72.0 °F 79% 29.95 in 10.0 mi Calm Calm - N/A   Scattered Clouds
5:56 AM 78.1 °F - 71.1 °F 79% 29.96 in 10.0 mi Calm Calm - N/A   Scattered Clouds
6:56 AM 75.9 °F - 72.0 °F 87% 29.98 in 10.0 mi Calm Calm - N/A   Partly Cloudy
7:56 AM 81.0 °F 85.2 °F 72.0 °F 74% 30.00 in 10.0 mi Calm Calm - N/A   Scattered Clouds
8:56 AM 82.9 °F 88.8 °F 73.0 °F 72% 30.01 in 10.0 mi East 6.9 mph - N/A   Scattered Clouds
9:56 AM 84.0 °F 90.2 °F 73.0 °F 69% 30.03 in 10.0 mi East 13.8 mph - 0.00 in   Scattered Clouds
10:56 AM 84.9 °F 91.4 °F 73.0 °F 67% 30.04 in 10.0 mi NE 11.5 mph - N/A   Scattered Clouds
11:56 AM 86.0 °F 92.2 °F 72.0 °F 63% 30.02 in 10.0 mi NE 15.0 mph - N/A   Scattered Clouds
12:56 PM 87.1 °F 93.6 °F 72.0 °F 61% 30.00 in 10.0 mi ENE 15.0 mph - N/A   Scattered Clouds
1:56 PM 86.0 °F 93.0 °F 73.0 °F 65% 29.99 in 10.0 mi ENE 12.7 mph 19.6 mph N/A   Scattered Clouds
2:56 PM 84.9 °F 91.4 °F 73.0 °F 67% 29.97 in 10.0 mi ENE 15.0 mph 20.7 mph N/A   Scattered Clouds
3:56 PM 84.0 °F 89.6 °F 72.0 °F 67% 29.97 in 10.0 mi NE 11.5 mph - N/A   Scattered Clouds
4:56 PM 82.9 °F 88.0 °F 72.0 °F 69% 29.99 in 10.0 mi ENE 12.7 mph - N/A   Scattered Clouds
5:56 PM 82.0 °F 86.7 °F 72.0 °F 71% 29.99 in 10.0 mi ENE 12.7 mph - N/A   Scattered Clouds
6:56 PM 82.0 °F 86.7 °F 72.0 °F 71% 30.01 in 10.0 mi ENE 10.4 mph - N/A   Scattered Clouds
7:56 PM 82.0 °F 86.7 °F 72.0 °F 71% 30.04 in 10.0 mi ENE 10.4 mph - N/A   Partly Cloudy
8:56 PM 82.0 °F 86.7 °F 72.0 °F 71% 30.06 in 10.0 mi ENE 9.2 mph - N/A   Scattered Clouds
9:56 PM 81.0 °F 85.2 °F 72.0 °F 74% 30.06 in 10.0 mi ENE 10.4 mph - N/A   Partly Cloudy
10:56 PM 82.0 °F 87.4 °F 73.0 °F 74% 30.06 in 10.0 mi ENE 12.7 mph - N/A   Scattered Clouds
11:56 PM 82.0 °F 87.4 °F 73.0 °F 74% 30.04 in 10.0 mi NE 11.5 mph - N/A   Scattered Clouds